EW4120 Weather Reports


Display with metric or nautical units.
time (UTC)temp
F
wind
direction
speed
MPH
gust
MPH
rain 1hr
in
rain 24hr
in
rain mn
in
humidity
%
barometer
mb
20260505002538 65 0.0 0.0 0.00 0.00 0.00 54 1013.4
20260505001517 67 0.0 0.0 0.00 0.00 0.00 50 1013.4
20260505000538 69 0.0 0.0 0.00 0.00 0.00 48 1013.5
20260504235558 70 0.0 0.0 0.00 0.00 0.00 45 1013.2
20260504234618 72 0.0 0.0 0.00 0.00 0.00 44 1013.2
20260504233558 73 0.0 3.0 0.00 0.00 0.00 41 1013.1
20260504232618 74 0.0 2.0 0.00 0.00 0.00 40 1013.1
20260504231517 75 0.0 1.0 0.00 0.00 0.00 41 1013.1
20260504230537 77 0.0 4.0 0.00 0.00 0.00 38 1013.1
20260504225517 78 293 2.0 8.0 0.00 0.00 0.00 37 1013.1
20260504224517 79 293 1.0 4.0 0.00 0.00 0.00 36 1013.2
20260504223537 79 270 1.0 6.0 0.00 0.00 0.00 36 1013.2
20260504222517 80 315 1.0 5.0 0.00 0.00 0.00 36 1013.4
20260504221517 80 315 2.0 6.0 0.00 0.00 0.00 36 1013.3
20260504220517 81 293 1.0 4.0 0.00 0.00 0.00 36 1013.3
20260504215537 80 113 1.0 4.0 0.00 0.00 0.00 35 1013.3
20260504214517 81 293 1.0 3.0 0.00 0.00 0.00 36 1013.5
20260504213517 82 315 1.0 4.0 0.00 0.00 0.00 36 1013.4
20260504212557 81 0.0 3.0 0.00 0.00 0.00 36 1013.4
20260504211617 81 293 1.0 4.0 0.00 0.00 0.00 37 1013.3
20260504210517 82 270 1.0 3.0 0.00 0.00 0.00 35 1013.4
20260504205517 81 270 2.0 6.0 0.00 0.00 0.00 36 1013.5
20260504204517 81 270 1.0 5.0 0.00 0.00 0.00 37 1013.6
20260504203517 81 293 1.0 4.0 0.00 0.00 0.00 37 1013.6
20260504202537 81 113 1.0 7.0 0.00 0.00 0.00 39 1013.7
20260504201557 81 315 1.0 5.0 0.00 0.00 0.00 38 1013.8
20260504195557 80 315 2.0 6.0 0.00 0.00 0.00 39 1014.1
20260504194517 79 113 1.0 4.0 0.00 0.00 0.00 40 1014.2
20260504193517 79 45 2.0 7.0 0.00 0.00 0.00 42 1014.2
20260504192517 79 45 1.0 6.0 0.00 0.00 0.00 40 1014.3
20260504191537 79 248 1.0 3.0 0.00 0.00 0.00 39 1014.5
20260504190537 79 293 2.0 6.0 0.00 0.00 0.00 41 1014.7
20260504185517 78 23 1.0 5.0 0.00 0.00 0.00 42 1014.8
20260504184658 77 315 1.0 3.0 0.00 0.00 0.00 43 1014.9
20260504183637 77 113 1.0 5.0 0.00 0.00 0.00 44 1014.8
20260504182517 77 315 1.0 4.0 0.00 0.00 0.00 42 1014.9
20260504181517 76 315 1.0 3.0 0.00 0.00 0.00 45 1015.0
20260504180557 75 293 1.0 4.0 0.00 0.00 0.00 43 1015.1
20260504175517 76 315 2.0 7.0 0.00 0.00 0.00 47 1015.0
20260504174537 75 315 1.0 3.0 0.00 0.00 0.00 46 1015.2
20260504173517 75 90 1.0 6.0 0.00 0.00 0.00 45 1015.2
20260504172537 75 315 1.0 4.0 0.00 0.00 0.00 47 1015.4
20260504171517 74 45 1.0 5.0 0.00 0.00 0.00 44 1015.3
20260504170517 74 45 1.0 5.0 0.00 0.00 0.00 45 1015.7
20260504150516 68 293 1.0 5.0 0.00 0.00 0.00 49 1017.0
20260504140516 62 0.0 1.0 0.00 0.00 0.00 68 1016.7
20260504130516 54 0.0 1.0 0.00 0.00 0.00 84 1016.6
20260504110556 37 0.0 0.0 0.00 0.00 0.00 95 1016.6
20260504100536 37 0.0 0.0 0.00 0.00 0.00 94 1016.5
20260504081516 38 0.0 0.0 0.00 0.00 0.00 92 1016.4
20260504080516 38 0.0 0.0 0.00 0.00 0.00 92 1016.3
20260504050517 40 0.0 0.0 0.00 0.00 0.00 89 1016.5
20260504045517 40 0.0 0.0 0.00 0.00 0.00 89 1016.4
20260504044517 40 0.0 0.0 0.00 0.00 0.00 88 1016.3
20260504043537 40 0.0 0.0 0.00 0.00 0.00 88 1016.2
20260504042558 40 0.0 0.0 0.00 0.00 0.00 88 1016.1
20260504041558 40 0.0 0.0 0.00 0.00 0.00 87 1016.2
20260504040658 40 0.0 0.0 0.00 0.00 0.00 87 1016.2
20260504035516 40 0.0 0.0 0.00 0.00 0.00 86 1016.2
20260504034616 41 0.0 0.0 0.00 0.00 0.00 85 1016.1
20260504033516 41 0.0 0.0 0.00 0.00 0.00 84 1016.3
20260504032536 41 0.0 0.0 0.00 0.00 0.00 84 1016.2
20260504031556 41 0.0 0.0 0.00 0.00 0.00 84 1016.3
20260504030536 42 0.0 0.0 0.00 0.00 0.00 83 1016.5
20260504025516 42 0.0 0.0 0.00 0.00 0.00 83 1016.4
20260504024516 43 0.0 0.0 0.00 0.00 0.00 82 1016.3
20260504023516 43 0.0 0.0 0.00 0.00 0.00 81 1016.1
20260504022516 43 0.0 0.0 0.00 0.00 0.00 80 1016.0
20260504021536 44 0.0 0.0 0.00 0.00 0.00 79 1015.9
20260504020516 44 0.0 0.0 0.00 0.00 0.00 78 1015.9
20260504015536 44 0.0 0.0 0.00 0.00 0.00 76 1015.7
20260504014616 45 0.0 0.0 0.00 0.00 0.00 75
20260504013616 46 0.0 0.0 0.00 0.00 0.00 73
20260504012536 46 0.0 0.0 0.00 0.00 0.00 72
20260504011518 47 0.0 0.0 0.00 0.00 0.00 69
20260504010518 48 0.0 0.0 0.00 0.00 0.00 68
20260504005638 49 0.0 0.0 0.00 0.00 0.00 66
20260504004538 51 0.0 0.0 0.00 0.00 0.00 65
20260504003536 52 0.0 0.0 0.00 0.00 0.00 61